DW0542 Weather Reports


Display with metric or nautical units.
time (UTC)temp
F
wind
direction
speed
MPH
gust
MPH
rain 1hr
in
rain 24hr
in
rain mn
in
humidity
%
barometer
mb
20260510113034 51 194 0.0 6.0 0.00 0.67 0.43 92 1012.9
20260510111526 51 194 0.0 6.0 0.00 0.67 0.43 92 1012.8
20260510110027 51 68 0.0 4.0 0.00 0.67 0.43 92 1012.5
20260510104533 51 131 0.0 0.0 0.00 0.67 0.43 92 1012.5
20260510103025 51 134 0.0 0.0 0.00 0.72 0.43 92 1012.7
20260510101523 51 194 0.0 0.0 0.00 0.72 0.43 92 1012.9
20260510100022 51 194 0.0 0.0 0.00 0.72 0.43 92 1012.6
20260510094534 51 194 0.0 0.0 0.00 0.72 0.43 92 1012.8
20260510093021 51 195 0.0 0.0 0.00 0.72 0.43 92 1012.9
20260510091520 51 195 0.0 3.0 0.00 0.72 0.43 92 1012.6
20260510090020 51 172 0.0 0.0 0.00 0.72 0.43 92 1012.4
20260510084517 50 171 0.0 0.0 0.00 0.72 0.43 92 1012.2
20260510083016 50 171 0.0 0.0 0.00 0.72 0.43 92 1012.1
20260510081616 50 170 0.0 0.0 0.00 0.72 0.43 92 1011.9
20260510080015 51 171 0.0 0.0 0.00 0.72 0.43 92 1012.0
20260510074514 51 171 0.0 0.0 0.00 0.72 0.43 92 1012.1
20260510073015 51 171 0.0 0.0 0.00 0.72 0.43 92 1012.2
20260510071512 51 171 0.0 4.0 0.00 0.72 0.43 92 1012.2
20260510070046 51 89 0.0 0.0 0.00 0.72 0.43 92 1011.9
20260510064541 51 89 0.0 0.0 0.00 0.72 0.43 92 1011.9
20260510063040 51 89 0.0 0.0 0.00 0.72 0.43 92 1011.8
20260510061538 51 89 0.0 0.0 0.00 0.72 0.43 92 1011.7
20260510060038 51 89 0.0 0.0 0.00 0.72 0.43 92 1012.0
20260510054546 51 89 0.0 0.0 0.00 0.72 0.43 92 1012.2
20260510053035 51 89 0.0 0.0 0.00 0.72 0.43 92 1012.1
20260510051535 51 89 0.0 0.0 0.00 0.72 0.43 92 1011.9
20260510050033 51 89 0.0 0.0 0.00 0.72 0.43 92 1011.5
20260510044541 51 89 0.0 0.0 0.00 0.72 0.43 92 1012.1
20260510043030 50 89 0.0 0.0 0.00 0.72 0.43 92 1012.0
20260510041530 50 89 0.0 0.0 0.00 0.72 0.43 92 1011.9
20260510040028 51 89 0.0 0.0 0.00 0.72 0.43 92 1012.0
20260510034527 51 89 0.0 0.0 0.00 0.72 0.43 92 1012.0
20260510033116 51 88 0.0 0.0 0.00 0.72 0.43 92 1011.8
20260510031557 51 87 0.0 0.0 0.01 0.72 0.43 92 1011.7
20260510030028 51 87 0.0 0.0 0.01 0.72 0.43 92 1012.2
20260510024522 51 87 0.0 0.0 0.01 0.72 0.43 92 1012.1
20260510023058 51 87 0.0 0.0 0.01 0.72 0.43 91 1012.1
20260510021552 51 87 0.0 3.0 0.00 0.71 0.42 91 1012.3
20260510014608 51 88 0.0 6.0 0.01 0.71 0.42 91 1012.3
20260510013059 51 87 0.0 4.0 0.02 0.71 0.42 91 1012.4
20260510011545 51 85 0.0 8.0 0.03 0.71 0.42 91 1012.7
20260510010030 52 220 0.0 4.0 0.04 0.70 0.41 91 1012.7
20260510004504 52 118 0.0 8.0 0.05 0.69 0.40 91 1012.8
20260510003002 53 121 0.0 0.0 0.08 0.69 0.40 91 1012.6
20260510001503 53 182 2.0 11.0 0.12 0.68 0.39 91 1012.6
20260510000100 53 96 0.0 0.0 0.15 0.66 0.37 91 1012.5
20260509234556 53 124 0.0 2.0 0.18 0.64 0.35 91 1012.6
20260509233055 53 122 1.0 5.0 0.18 0.61 0.32 91 1012.6
20260509231606 53 159 0.0 0.0 0.17 0.56 0.27 91 1012.5
20260509230053 53 160 0.0 0.0 0.18 0.51 0.22 91 1012.8
20260509224522 54 161 0.0 5.0 0.16 0.46 0.17 90 1012.9
20260509223021 54 226 0.0 0.0 0.15 0.43 0.14 90 1012.6
20260509220012 54 226 0.0 5.0 0.07 0.33 0.04 89 1012.3
20260509214509 54 241 0.0 1.0 0.05 0.30 0.01 89 1012.3
20260509213008 54 190 0.0 0.0 0.08 0.28 0.28 89 1012.0
20260509211514 54 191 0.0 0.0 0.12 0.27 0.27 88 1012.1
20260509210006 55 188 0.0 6.0 0.14 0.26 0.26 88 1012.2
20260509204504 55 197 1.0 7.0 0.12 0.24 0.24 87 1012.3
20260509203005 55 122 0.0 6.0 0.11 0.20 0.20 86 1012.1
20260509201558 56 186 0.0 11.0 0.08 0.15 0.15 86 1012.2
20260509200058 57 82 0.0 0.0 0.05 0.12 0.12 85 1011.7
20260509194530 57 82 0.0 1.0 0.05 0.12 0.12 82 1011.6
20260509193027 59 76 0.0 7.0 0.02 0.09 0.09 78 1011.7
20260509191527 59 134 0.0 3.0 0.00 0.07 0.07 73 1011.7
20260509190021 60 126 0.0 6.0 0.00 0.07 0.07 72 1011.9
20260509184521 59 191 1.0 9.0 0.00 0.07 0.07 74 1012.0
20260509183015 59 184 0.0 6.0 0.00 0.07 0.07 72 1012.1
20260509181514 59 128 0.0 1.0 0.00 0.07 0.07 74 1012.2
20260509180013 59 123 0.0 0.0 0.00 0.07 0.07 72 1012.2
20260509174511 59 182 0.0 4.0 0.00 0.07 0.07 73 1012.5
20260509173032 59 196 0.0 5.0 0.00 0.07 0.07 71 1012.8
20260509171521 59 190 0.0 5.0 0.00 0.07 0.07 71 1012.7
20260509170014 59 181 2.0 12.0 0.00 0.07 0.07 71 1013.0
20260509164558 59 173 1.0 8.0 0.00 0.07 0.07 74 1012.7
20260509163052 59 195 0.0 8.0 0.00 0.07 0.07 72 1012.8
20260509161548 58 183 0.0 5.0 0.00 0.07 0.07 76 1013.0
20260509154525 55 105 0.0 3.0 0.00 0.07 0.07 83 1013.4
20260509153031 54 173 0.0 4.0 0.00 0.07 0.07 85 1013.5
20260509151519 52 153 0.0 5.0 0.00 0.07 0.07 86 1013.6
20260509150019 52 77 0.0 4.0 0.00 0.07 0.07 85 1013.4
20260509144518 51 151 0.0 0.0 0.00 0.07 0.07 85 1013.7
20260509143019 51 82 1.0 7.0 0.00 0.07 0.07 85 1013.7
20260509141550 50 75 0.0 0.0 0.00 0.07 0.07 86 1013.9
20260509140046 49 58 0.0 3.0 0.00 0.07 0.07 86 1014.1
20260509134645 49 147 0.0 4.0 0.00 0.07 0.07 87 1014.3
20260509133044 48 245 0.0 0.0 0.00 0.07 0.07 88 1014.6
20260509131556 47 245 0.0 0.0 0.00 0.07 0.07 88 1014.8
20260509124531 45 245 0.0 0.0 0.01 0.07 0.07 87 1014.9
20260509123011 45 245 0.0 0.0 0.01 0.07 0.07 88 1014.8
20260509121507 44 246 0.0 0.0 0.02 0.07 0.07 89 1014.8
20260509120013 44 246 0.0 0.0 0.02 0.07 0.07 89 1015.0
20260509114505 44 246 0.0 0.0 0.01 0.06 0.06 89 1015.3